[[{"header":{"parameterUnit":"m.s-1","parameterCategory":1,"la1":30.2991,"la2":30.254,"lo1":-89.0895,"lo2":-89.0444,"dy":0.0017,"dx":0.0017,"nx":28,"ny":28,"refTime":"2024-02-19T09:00:00:Z","depth":0,"parameterNumber":2,"parameterNumberName":"U-component_of_WINDS"},"data":[0,0,0,0,0,0,0,0,0,0,0,0,0,0,0,0,0,0,0,0,0,0,0,0,0,0,0,0,0,0,0,0,0,0,0,0,0,0,0,0,0,0,0,0,0,0,0,0,0,0,0,0,0,0,0,0,0,0,1.8378,1.8378,0,1.8415,1.8415,1.8416,1.8298,1.8295,1.8291,1.8288,1.8326,1.8331,1.8335,0,0,0,0,0,0,0,0,0,0,0,0,0,1.8206,1.821,1.8378,1.8378,1.8379,1.8415,1.8415,1.8416,1.8299,1.8295,1.829,1.8286,1.8325,1.833,1.8335,0,0,0,0,0,0,0,0,0,0,0,0,0,1.8266,1.8211,1.8378,1.8325,1.832,1.8415,1.8415,1.8416,1.83,1.8295,1.8289,1.8284,1.8323,1.8329,1.8336,1.8483,0,0,1.8356,1.8359,0,0,0,0,0,0,0,0,1.8262,1.8272,1.8332,1.8329,1.8324,1.8346,1.8368,1.8438,1.8301,1.8308,1.8288,1.8282,1.8337,1.8342,1.8361,1.8485,1.8486,1.8356,1.836,1.8363,1.8365,0,0,0,0,0,0,0,1.8258,1.827,1.8392,1.8333,1.8328,1.8299,1.8302,1.8381,1.8352,1.8307,1.8298,1.8304,1.8334,1.8355,1.8361,1.8487,1.8356,1.8362,1.8366,1.8369,1.8731,1.8737,0,0,0,0,0,0,1.8261,1.8267,1.8391,1.8393,1.8279,1.8307,1.8309,1.8345,1.8351,1.8347,1.8309,1.8299,1.8347,1.8354,1.8362,1.8533,1.8363,1.8369,1.8373,1.8726,1.8733,1.8739,0,0,0,0,0,0,1.8258,1.8273,1.839,1.8328,1.8341,1.8315,1.8356,1.8348,1.8369,1.8352,1.8347,1.8336,1.8343,1.8353,1.8453,1.8533,1.8372,1.8378,1.8719,1.8728,1.8736,1.8878,0,0,0,0,0,0,1.8253,1.8273,1.8329,1.833,1.8344,1.8481,1.8361,1.8353,1.838,1.8368,1.8376,1.8372,1.8339,1.8444,1.846,1.8539,1.8383,1.8712,1.8723,1.8733,1.8866,1.889,1.8911,0,0,0,0,0,1.8248,1.8367,1.8332,1.8348,1.8413,1.8486,1.8494,1.8453,1.8387,1.8443,1.8432,1.8372,1.8522,1.8456,1.8472,1.8554,1.8706,1.872,1.8732,1.8856,1.8885,1.891,0,0,0,0,0,0,1.8376,1.8367,1.8327,1.8451,1.847,1.8466,1.8535,1.8486,1.8524,1.8511,1.8459,1.8462,1.8571,1.8573,1.8499,1.8696,1.8603,1.862,1.8691,1.8719,1.8741,1.8738,1.8388,0,0,0,0,0,1.8419,1.8478,1.8467,1.8577,1.8589,1.8561,1.8591,1.8558,1.8575,1.8583,1.8579,1.8599,1.865,1.8685,1.8731,1.8866,1.8865,1.893,1.8953,1.8972,1.8986,1.9056,1.9085,1.8781,1.8781,1.8781,0,0,1.8508,1.851,1.8551,1.8603,1.8614,1.8676,1.8568,1.8639,1.8685,1.8593,1.8688,1.8686,1.8704,1.8822,1.8874,1.8827,1.907,1.8988,1.9003,1.9008,1.9073,1.9101,1.9127,1.879,1.8788,1.8787,0,0,1.8701,1.871,1.8802,1.8815,1.8832,1.8813,1.8835,1.8838,1.8833,1.8927,1.886,1.8913,1.9003,1.9018,1.9038,1.9237,1.9183,1.9254,1.9371,1.944,1.9464,1.9485,1.9555,1.958,1.9269,1.9269,1.9269,0,1.8809,1.8901,1.8855,1.8931,1.8955,1.8875,1.8968,1.8983,1.9015,1.9034,1.8981,1.9091,1.9097,1.9217,1.9266,1.9285,1.9308,1.9252,1.9464,1.9485,1.9504,1.9569,1.9596,1.9277,1.9276,1.9276,1.9275,0,1.9032,1.9097,1.9169,1.9202,1.9235,1.9319,1.9285,1.9324,1.9289,1.9275,1.9371,1.9376,1.9421,1.9447,1.9414,1.9562,1.9532,1.9473,1.9378,1.9542,1.9603,1.9628,1.9289,1.9286,1.9284,1.9282,0,0,1.9307,1.9313,1.9341,1.9354,1.9368,1.9416,1.9496,1.954,1.9574,1.9599,1.9664,1.9742,1.9686,1.9709,1.9676,1.9737,1.9892,1.9669,1.9669,1.9709,2.0055,2.0099,2.0129,1.9857,1.9861,1.9865,2.0053,0,1.9497,1.9633,1.9595,1.9731,1.979,1.9715,1.9784,1.98,1.9789,1.9837,1.9824,1.9879,1.9803,1.9816,1.9872,1.9862,1.9961,1.9848,1.9916,1.9919,1.9913,2.0161,2.0208,2.0385,2.0077,2.0081,2.0084,0,1.9736,1.977,1.9912,1.9915,1.9938,2.0001,2.0038,2.0085,2.0101,2.0089,2.0114,2.0068,2.0146,2.0052,2.0158,2.0082,2.0107,2.0106,2.0112,2.0116,2.0011,2.017,2.0441,2.0467,2.0121,2.0118,2.0115,0,1.992,2.0002,2.0097,2.0111,2.0117,2.0163,2.0168,2.0179,2.0207,2.024,2.0257,2.0299,2.0321,2.0354,2.0321,2.0255,2.0432,2.0335,2.0423,2.0424,2.0462,2.046,2.0739,2.0482,2.0482,2.0481,2.048,0,2.0135,2.0225,2.018,2.0239,2.0337,2.0291,2.039,2.0386,2.0396,2.0452,2.039,2.0444,2.0397,2.0447,2.0422,2.0513,2.0524,2.0515,2.0507,2.052,2.0521,2.0535,2.0522,2.0488,2.0486,2.0485,2.0484,0,2.0357,2.0331,2.043,2.0427,2.0429,2.0501,2.0499,2.0553,2.0537,2.0609,2.0623,2.0599,2.0654,2.0625,2.0682,2.0664,2.0782,2.0758,2.0777,2.077,2.0859,2.0851,2.1156,2.1193,2.0913,2.0916,2.0918,0,2.0496,2.0563,2.0568,2.0601,2.0609,2.0664,2.0692,2.065,2.0683,2.0706,2.0757,2.0807,2.0844,2.0936,2.0923,2.0966,2.0942,2.1046,2.0948,2.0958,2.0942,2.0937,2.0943,2.1065,2.1069,2.1071,2.1074,0,2.0743,2.0726,2.077,2.081,2.0846,2.0875,2.0899,2.093,2.0888,2.0928,2.0983,2.1013,2.107,2.112,2.1157,2.1161,2.1111,2.1105,2.1127,2.114,2.1148,2.1143,2.0829,2.1098,2.1095,2.1093,2.1092,2.1091,2.0926,2.0982,2.0994,2.1044,2.1058,2.1082,2.1132,2.1123,2.1168,2.1212,2.1184,2.125,2.1263,2.1307,2.1318,2.1368,2.1326,2.1359,2.1367,2.1376,2.1387,2.1141,2.1375,2.1374,2.1373,2.1373,2.1372,0,2.1169,2.1173,2.122,2.1255,2.1295,2.1244,2.1268,2.1304,2.1363,2.1379,2.1417,2.1481,2.1529,2.152,2.1563,2.1605,2.1583,2.1618,2.1613,2.1615,2.1423,2.1398,2.1635,2.1635,2.1635,2.1635,2.1635,2.1635,2.13,2.1391,2.1376,2.1473,2.1476,2.1539,2.1557,2.1578,2.1591,2.1665,2.1704,2.1698,2.1705,2.1748,2.1789,2.1785,2.1803,2.1847,2.1834,2.1655,2.1629,2.1604,2.158,2.1852,2.1852,2.2022,2.2024,2.2025]},{"header":{"parameterUnit":"m.s-1","parameterCategory":1,"la1":30.2991,"la2":30.254,"lo1":-89.0895,"lo2":-89.0444,"dy":0.0017,"dx":0.0017,"nx":28,"ny":28,"refTime":"2024-02-19T09:00:00:Z","depth":0,"parameterNumber":3,"parameterNumberName":"V-component_of_WINDS"},"data":[0,0,0,0,0,0,0,0,0,0,0,0,0,0,0,0,0,0,0,0,0,0,0,0,0,0,0,0,0,0,0,0,0,0,0,0,0,0,0,0,0,0,0,0,0,0,0,0,0,0,0,0,0,0,0,0,0,0,-0.8106,-0.8106,0,-0.806,-0.806,-0.8059,-0.8053,-0.8053,-0.8054,-0.8054,-0.8007,-0.8005,-0.8004,0,0,0,0,0,0,0,0,0,0,0,0,0,-0.8189,-0.8188,-0.8107,-0.8106,-0.8105,-0.8061,-0.806,-0.8059,-0.8053,-0.8053,-0.8054,-0.8055,-0.8007,-0.8005,-0.8003,0,0,0,0,0,0,0,0,0,0,0,0,0,-0.8149,-0.8187,-0.8107,-0.8097,-0.8095,-0.8061,-0.806,-0.8059,-0.8053,-0.8054,-0.8054,-0.8055,-0.8008,-0.8006,-0.8003,-0.7975,0,0,-0.7996,-0.7994,0,0,0,0,0,0,0,0,-0.8152,-0.8146,-0.8099,-0.8097,-0.8096,-0.8063,-0.8072,-0.8031,-0.8053,-0.8069,-0.8054,-0.8055,-0.8025,-0.8021,-0.8011,-0.7973,-0.7971,-0.7995,-0.7994,-0.7993,-0.7992,0,0,0,0,0,0,0,-0.8154,-0.8148,-0.8088,-0.8098,-0.8096,-0.8095,-0.809,-0.8064,-0.8044,-0.8068,-0.8067,-0.8062,-0.8024,-0.8014,-0.801,-0.797,-0.7995,-0.7993,-0.7992,-0.7991,-0.7907,-0.7906,0,0,0,0,0,0,-0.8159,-0.8151,-0.809,-0.8087,-0.8126,-0.8093,-0.8087,-0.8073,-0.8044,-0.804,-0.8061,-0.8062,-0.8018,-0.8013,-0.8008,-0.7974,-0.7993,-0.799,-0.7989,-0.7908,-0.7907,-0.7906,0,0,0,0,0,0,-0.8161,-0.8154,-0.8092,-0.8119,-0.8111,-0.8091,-0.8075,-0.8072,-0.8061,-0.8039,-0.8036,-0.8054,-0.8018,-0.8012,-0.7983,-0.7972,-0.7989,-0.7987,-0.7909,-0.7907,-0.7906,-0.7904,0,0,0,0,0,0,-0.8163,-0.8154,-0.8143,-0.8118,-0.8109,-0.8067,-0.8074,-0.807,-0.8057,-0.8057,-0.8031,-0.8028,-0.8018,-0.7987,-0.7981,-0.7969,-0.7985,-0.7909,-0.7908,-0.7907,-0.7905,-0.7903,-0.7901,0,0,0,0,0,-0.8166,-0.8144,-0.8142,-0.8135,-0.8095,-0.8067,-0.8061,-0.805,-0.8056,-0.8044,-0.8031,-0.8029,-0.7974,-0.7984,-0.7977,-0.7964,-0.791,-0.7908,-0.7907,-0.7906,-0.7903,-0.7901,0,0,0,0,0,0,-0.8167,-0.814,-0.8139,-0.8108,-0.809,-0.8066,-0.8051,-0.8048,-0.8028,-0.8028,-0.8016,-0.801,-0.7982,-0.7971,-0.7982,-0.7936,-0.7943,-0.794,-0.7944,-0.7942,-0.794,-0.7943,-0.7983,0,0,0,0,0,-0.8164,-0.8143,-0.8121,-0.8096,-0.8087,-0.8071,-0.8058,-0.8051,-0.8032,-0.8024,-0.8008,-0.7989,-0.7968,-0.7954,-0.7934,-0.7903,-0.7898,-0.7891,-0.7889,-0.7888,-0.7885,-0.7869,-0.7865,-0.7901,-0.7901,-0.7901,0,0,-0.8156,-0.8139,-0.8127,-0.8096,-0.8081,-0.806,-0.8064,-0.8041,-0.8026,-0.802,-0.7993,-0.7981,-0.7959,-0.793,-0.7916,-0.7919,-0.7874,-0.7886,-0.7885,-0.7882,-0.7866,-0.7863,-0.786,-0.7899,-0.79,-0.79,0,0,-0.8132,-0.8117,-0.8095,-0.808,-0.8058,-0.8048,-0.8042,-0.8019,-0.8011,-0.7983,-0.7979,-0.7961,-0.7924,-0.7909,-0.7897,-0.7869,-0.7866,-0.7863,-0.7852,-0.7836,-0.7834,-0.7831,-0.7821,-0.7818,-0.786,-0.786,-0.786,0,-0.8126,-0.8094,-0.8084,-0.8062,-0.8048,-0.8043,-0.8021,-0.8007,-0.7979,-0.797,-0.7974,-0.7929,-0.7914,-0.7881,-0.7874,-0.7865,-0.7858,-0.7865,-0.7835,-0.7832,-0.783,-0.782,-0.7816,-0.786,-0.786,-0.786,-0.786,0,-0.8087,-0.8066,-0.805,-0.8024,-0.8009,-0.7987,-0.7973,-0.7959,-0.7954,-0.7944,-0.7916,-0.7898,-0.7874,-0.7866,-0.7861,-0.7833,-0.7836,-0.7837,-0.7844,-0.7826,-0.7817,-0.7813,-0.7859,-0.7859,-0.7859,-0.7859,0,0,-0.8061,-0.803,-0.8025,-0.8013,-0.7989,-0.7972,-0.795,-0.7927,-0.7915,-0.7897,-0.7878,-0.7848,-0.785,-0.7836,-0.7829,-0.7816,-0.7795,-0.7819,-0.7818,-0.7815,-0.7764,-0.7762,-0.7758,-0.7794,-0.7793,-0.7792,-0.7765,0,-0.8034,-0.7994,-0.7985,-0.7951,-0.7931,-0.7927,-0.7908,-0.7891,-0.7881,-0.7863,-0.7852,-0.7831,-0.7835,-0.7827,-0.7813,-0.78,-0.7784,-0.7802,-0.7776,-0.7775,-0.7781,-0.7753,-0.7751,-0.7726,-0.7762,-0.7761,-0.7761,0,-0.7996,-0.7977,-0.7942,-0.7921,-0.7912,-0.7895,-0.7874,-0.7857,-0.7838,-0.7832,-0.7817,-0.7812,-0.7789,-0.7798,-0.7767,-0.778,-0.7769,-0.7761,-0.776,-0.7757,-0.7766,-0.7749,-0.7718,-0.7715,-0.7755,-0.7755,-0.7756,0,-0.7981,-0.7946,-0.7921,-0.7911,-0.7886,-0.7874,-0.7864,-0.7846,-0.7833,-0.7814,-0.7806,-0.7785,-0.7773,-0.7758,-0.7747,-0.7755,-0.7717,-0.7725,-0.7712,-0.7712,-0.7703,-0.7704,-0.767,-0.7697,-0.7697,-0.7697,-0.7697,0,-0.7951,-0.7929,-0.7913,-0.7897,-0.7873,-0.7863,-0.784,-0.7829,-0.7814,-0.7796,-0.7791,-0.7775,-0.7763,-0.7745,-0.7737,-0.7713,-0.7707,-0.7702,-0.77,-0.7702,-0.7703,-0.7694,-0.7695,-0.7696,-0.7696,-0.7697,-0.7697,0,-0.7928,-0.7917,-0.7889,-0.7868,-0.7863,-0.7846,-0.7828,-0.7813,-0.7804,-0.7781,-0.7776,-0.776,-0.7739,-0.7728,-0.7701,-0.7696,-0.7669,-0.7668,-0.7675,-0.7674,-0.7661,-0.7662,-0.762,-0.7615,-0.7646,-0.7645,-0.7645,0,-0.791,-0.7893,-0.7871,-0.7859,-0.7848,-0.7829,-0.7816,-0.7806,-0.7793,-0.7771,-0.7758,-0.7737,-0.7719,-0.7686,-0.7673,-0.7653,-0.7651,-0.7638,-0.7648,-0.7651,-0.7651,-0.7652,-0.765,-0.7636,-0.7635,-0.7635,-0.7635,0,-0.7878,-0.7873,-0.7855,-0.7834,-0.7819,-0.7803,-0.7786,-0.7777,-0.7765,-0.775,-0.7728,-0.7715,-0.7688,-0.7667,-0.7646,-0.7636,-0.7633,-0.7632,-0.7628,-0.7629,-0.7634,-0.7631,-0.767,-0.7633,-0.7633,-0.7633,-0.7633,-0.7633,-0.7856,-0.7842,-0.7824,-0.7804,-0.7791,-0.7776,-0.7761,-0.775,-0.7732,-0.7709,-0.7705,-0.7682,-0.7666,-0.7637,-0.7626,-0.7609,-0.7611,-0.7605,-0.7603,-0.7602,-0.7601,-0.7638,-0.7605,-0.7605,-0.7605,-0.7605,-0.7605,0,-0.7824,-0.7813,-0.7795,-0.7772,-0.7757,-0.7757,-0.7739,-0.7726,-0.7706,-0.7691,-0.7674,-0.7649,-0.7629,-0.7615,-0.7595,-0.7584,-0.7582,-0.7579,-0.7579,-0.7577,-0.76,-0.7606,-0.758,-0.758,-0.758,-0.758,-0.758,-0.758,-0.7805,-0.7781,-0.7774,-0.7743,-0.7733,-0.771,-0.77,-0.7687,-0.7675,-0.7648,-0.7631,-0.7622,-0.7608,-0.7587,-0.7569,-0.7565,-0.7558,-0.7554,-0.7551,-0.7572,-0.7575,-0.7578,-0.7583,-0.7553,-0.7553,-0.7529,-0.7528,-0.7528]}]]